Time,TemperatureF,DewpointF,PressureIn,WindDirection,WindDirectionDegrees,WindSpeedMPH,WindSpeedGustMPH,Humidity,HourlyPrecipIn,Conditions,Clouds,dailyrainin,SoftwareType,DateUTC
2013-03-18 00:03:00,36.3,32.4,30.16,SE,135,0.0,4.9,86,0.00,,,0.00,WUHU216HW,2013-03-18 07:03:00,
2013-03-18 00:08:00,36.1,32.3,30.16,SE,135,0.0,0.0,86,0.00,,,0.00,WUHU216HW,2013-03-18 07:08:00,
2013-03-18 00:14:00,35.9,32.1,30.16,SSE,158,0.0,0.0,86,0.00,,,0.00,WUHU216HW,2013-03-18 07:14:00,
2013-03-18 00:19:00,35.9,32.1,30.17,South,180,3.8,4.0,86,0.00,,,0.00,WUHU216HW,2013-03-18 07:19:00,
2013-03-18 00:24:00,35.8,32.2,30.17,SSE,158,0.0,4.0,87,0.00,,,0.00,WUHU216HW,2013-03-18 07:24:00,
2013-03-18 00:29:00,35.8,32.2,30.17,SSW,203,6.4,7.3,87,0.00,,,0.00,WUHU216HW,2013-03-18 07:29:00,
2013-03-18 00:34:00,35.6,32.3,30.16,South,180,5.7,7.3,88,0.00,,,0.00,WUHU216HW,2013-03-18 07:34:00,
2013-03-18 00:39:00,35.6,32.3,30.16,SSE,158,3.1,6.0,88,0.00,,,0.00,WUHU216HW,2013-03-18 07:39:00,
2013-03-18 00:44:00,35.6,32.3,30.16,SSE,147,3.0,5.8,88,0.00,,,0.00,WUHU216HW,2013-03-18 07:44:00,
2013-03-18 00:49:00,35.6,32.3,30.16,SSE,158,0.0,3.5,88,0.00,,,0.00,WUHU216HW,2013-03-18 07:49:00,
2013-03-18 00:54:00,35.4,32.1,30.16,SSE,165,1.2,3.5,88,0.00,,,0.00,WUHU216HW,2013-03-18 07:54:00,
2013-03-18 00:59:00,35.2,32.2,30.15,South,180,2.8,3.3,89,0.00,,,0.00,WUHU216HW,2013-03-18 07:59:00,
2013-03-18 01:04:00,35.0,32.0,30.14,South,180,0.0,4.4,89,0.00,,,0.00,WUHU216HW,2013-03-18 08:04:00,
2013-03-18 01:09:00,35.0,32.3,30.14,South,180,5.2,6.4,90,0.00,,,0.00,WUHU216HW,2013-03-18 08:09:00,
2013-03-18 01:14:00,35.0,32.3,30.14,SSE,166,6.3,8.0,90,0.00,,,0.00,WUHU216HW,2013-03-18 08:14:00,
2013-03-18 01:19:00,35.2,32.5,30.14,SSE,158,3.1,8.5,90,0.00,,,0.00,WUHU216HW,2013-03-18 08:19:00,
2013-03-18 01:25:00,35.2,32.5,30.14,South,180,4.2,8.5,90,0.00,,,0.00,WUHU216HW,2013-03-18 08:25:00,
2013-03-18 01:30:00,35.2,32.5,30.15,SSW,203,6.9,7.3,90,0.00,,,0.00,WUHU216HW,2013-03-18 08:30:00,
2013-03-18 01:35:00,35.4,32.7,30.14,SE,135,0.0,14.5,90,0.00,,,0.00,WUHU216HW,2013-03-18 08:35:00,
2013-03-18 01:40:00,35.4,32.7,30.14,SSE,158,5.9,14.5,90,0.00,,,0.00,WUHU216HW,2013-03-18 08:40:00,
2013-03-18 01:45:00,35.4,32.7,30.14,South,180,6.4,8.5,90,0.00,,,0.00,WUHU216HW,2013-03-18 08:45:00,
2013-03-18 01:50:00,35.4,32.7,30.14,South,180,3.3,6.7,90,0.00,,,0.00,WUHU216HW,2013-03-18 08:50:00,
2013-03-18 01:55:00,35.4,32.7,30.13,SSE,158,7.6,8.0,90,0.00,,,0.00,WUHU216HW,2013-03-18 08:55:00,
2013-03-18 02:00:00,35.4,32.7,30.13,SSE,162,2.3,8.0,90,0.00,,,0.00,WUHU216HW,2013-03-18 09:00:00,
2013-03-18 02:05:00,35.6,32.9,30.13,SSW,203,1.6,5.5,90,0.00,,,0.00,WUHU216HW,2013-03-18 09:05:00,
2013-03-18 02:10:00,35.6,32.9,30.13,South,180,4.8,6.2,90,0.00,,,0.00,WUHU216HW,2013-03-18 09:10:00,
2013-03-18 02:15:00,35.6,32.9,30.12,South,177,6.0,11.6,90,0.00,,,0.00,WUHU216HW,2013-03-18 09:15:00,
2013-03-18 02:20:00,35.6,32.9,30.13,South,180,4.8,8.9,90,0.00,,,0.00,WUHU216HW,2013-03-18 09:20:00,
2013-03-18 02:25:00,35.6,32.9,30.13,SSE,158,4.7,9.1,90,0.00,,,0.00,WUHU216HW,2013-03-18 09:25:00,
2013-03-18 02:30:00,35.6,32.9,30.13,SE,135,2.8,9.1,90,0.00,,,0.00,WUHU216HW,2013-03-18 09:30:00,
2013-03-18 02:35:00,35.6,32.9,30.13,SSE,158,12.1,12.7,90,0.00,,,0.00,WUHU216HW,2013-03-18 09:35:00,
2013-03-18 02:40:00,35.6,32.9,30.12,South,180,7.4,12.7,90,0.00,,,0.00,WUHU216HW,2013-03-18 09:40:00,
2013-03-18 02:45:00,35.6,32.9,30.12,SE,135,7.4,12.7,90,0.00,,,0.00,WUHU216HW,2013-03-18 09:45:00,
2013-03-18 02:50:00,35.6,32.9,30.12,SSE,158,4.8,8.2,90,0.00,,,0.00,WUHU216HW,2013-03-18 09:50:00,
2013-03-18 02:55:00,35.6,32.9,30.11,SSE,158,2.5,8.0,90,0.00,,,0.00,WUHU216HW,2013-03-18 09:55:00,
2013-03-18 03:01:00,35.6,32.9,30.11,South,180,5.9,8.0,90,0.00,,,0.00,WUHU216HW,2013-03-18 10:01:00,
2013-03-18 03:06:00,35.6,32.9,30.11,South,180,5.0,6.9,90,0.00,,,0.00,WUHU216HW,2013-03-18 10:06:00,
2013-03-18 03:11:00,35.8,33.1,30.11,SSE,158,2.8,6.7,90,0.00,,,0.00,WUHU216HW,2013-03-18 10:11:00,
2013-03-18 03:16:00,35.8,33.1,30.11,SSE,158,2.2,6.7,90,0.00,,,0.00,WUHU216HW,2013-03-18 10:16:00,
2013-03-18 03:21:00,35.8,33.1,30.11,SSW,203,3.1,5.3,90,0.00,,,0.00,WUHU216HW,2013-03-18 10:21:00,
2013-03-18 03:27:00,35.8,33.1,30.11,SSE,158,5.1,7.6,90,0.00,,,0.00,WUHU216HW,2013-03-18 10:27:00,
2013-03-18 03:32:00,35.8,33.1,30.10,SSE,158,3.3,7.6,90,0.00,,,0.00,WUHU216HW,2013-03-18 10:32:00,
2013-03-18 03:37:00,35.8,32.8,30.10,SE,135,5.2,5.5,89,0.00,,,0.00,WUHU216HW,2013-03-18 10:37:00,
2013-03-18 03:42:00,35.8,32.8,30.10,SSE,154,5.6,8.2,89,0.00,,,0.00,WUHU216HW,2013-03-18 10:42:00,
2013-03-18 03:47:00,35.8,32.8,30.10,SE,135,6.6,8.2,89,0.00,,,0.00,WUHU216HW,2013-03-18 10:47:00,
2013-03-18 03:52:00,35.9,32.6,30.10,South,180,4.2,9.3,88,0.00,,,0.00,WUHU216HW,2013-03-18 10:52:00,
2013-03-18 03:57:00,35.9,32.6,30.10,SSW,203,4.2,9.3,88,0.00,,,0.00,WUHU216HW,2013-03-18 10:57:00,
2013-03-18 04:02:00,35.8,32.5,30.10,SE,144,2.7,7.3,88,0.00,,,0.00,WUHU216HW,2013-03-18 11:02:00,
2013-03-18 04:07:00,35.8,32.5,30.10,SE,135,3.1,7.3,88,0.00,,,0.00,WUHU216HW,2013-03-18 11:07:00,
2013-03-18 04:12:00,35.6,32.3,30.10,SSE,158,0.0,6.7,88,0.00,,,0.00,WUHU216HW,2013-03-18 11:12:00,
2013-03-18 04:18:00,35.6,32.3,30.10,SSE,158,5.5,5.8,88,0.00,,,0.00,WUHU216HW,2013-03-18 11:18:00,
2013-03-18 04:23:00,35.6,32.3,30.09,WSW,248,0.0,5.8,88,0.00,,,0.00,WUHU216HW,2013-03-18 11:23:00,
2013-03-18 04:28:00,35.6,32.3,30.09,SSE,158,4.0,7.3,88,0.00,,,0.00,WUHU216HW,2013-03-18 11:28:00,
2013-03-18 04:33:00,35.9,32.3,30.09,SSE,167,6.6,10.9,87,0.00,,,0.00,WUHU216HW,2013-03-18 11:33:00,
2013-03-18 04:38:00,36.5,32.6,30.09,SSE,168,5.9,10.9,86,0.00,,,0.00,WUHU216HW,2013-03-18 11:38:00,
2013-03-18 04:43:00,36.5,32.6,30.10,South,182,6.4,10.9,86,0.00,,,0.00,WUHU216HW,2013-03-18 11:43:00,
2013-03-18 04:48:00,36.8,32.6,30.10,South,175,6.1,10.9,85,0.00,,,0.00,WUHU216HW,2013-03-18 11:48:00,
2013-03-18 04:53:00,36.8,32.6,30.09,South,180,11.0,11.6,85,0.00,,,0.00,WUHU216HW,2013-03-18 11:53:00,
2013-03-18 04:58:00,36.8,32.6,30.09,South,180,6.9,11.6,85,0.00,,,0.00,WUHU216HW,2013-03-18 11:58:00,
2013-03-18 05:03:00,36.8,32.9,30.09,SSE,158,8.5,8.9,86,0.00,,,0.00,WUHU216HW,2013-03-18 12:03:00,
2013-03-18 05:08:00,36.8,33.2,30.09,South,180,9.4,14.5,87,0.00,,,0.00,WUHU216HW,2013-03-18 12:08:00,
2013-03-18 05:13:00,36.9,33.4,30.09,SSW,199,6.0,14.5,87,0.00,,,0.00,WUHU216HW,2013-03-18 12:13:00,
2013-03-18 05:18:00,36.9,33.4,30.09,SSW,203,9.7,10.2,87,0.00,,,0.00,WUHU216HW,2013-03-18 12:18:00,
2013-03-18 05:23:00,36.9,33.7,30.10,South,187,7.7,10.9,88,0.00,,,0.00,WUHU216HW,2013-03-18 12:23:00,
2013-03-18 05:28:00,37.1,33.9,30.10,SSW,192,6.6,13.8,88,0.00,,,0.00,WUHU216HW,2013-03-18 12:28:00,
2013-03-18 05:33:00,37.1,34.2,30.10,SSW,195,5.0,13.8,89,0.00,,,0.00,WUHU216HW,2013-03-18 12:33:00,
2013-03-18 05:38:00,37.1,34.2,30.10,SW,225,9.5,11.6,89,0.00,,,0.00,WUHU216HW,2013-03-18 12:38:00,
2013-03-18 05:44:00,37.1,34.2,30.10,ENE,68,0.0,11.6,89,0.00,,,0.00,WUHU216HW,2013-03-18 12:44:00,
2013-03-18 05:49:00,37.1,34.2,30.11,ESE,113,0.0,10.0,89,0.00,,,0.00,WUHU216HW,2013-03-18 12:49:00,
2013-03-18 05:54:00,37.1,34.2,30.12,ENE,68,1.9,8.5,89,0.00,,,0.00,WUHU216HW,2013-03-18 12:54:00,
2013-03-18 05:59:00,37.1,34.2,30.12,South,180,3.1,8.5,89,0.00,,,0.00,WUHU216HW,2013-03-18 12:59:00,
2013-03-18 06:04:00,37.3,34.4,30.13,SSW,203,6.9,8.0,89,0.00,,,0.00,WUHU216HW,2013-03-18 13:04:00,
2013-03-18 06:09:00,37.3,34.4,30.12,SSW,213,5.4,11.6,89,0.00,,,0.00,WUHU216HW,2013-03-18 13:09:00,
2013-03-18 06:14:00,37.3,34.4,30.12,SW,222,4.3,11.6,89,0.00,,,0.00,WUHU216HW,2013-03-18 13:14:00,
2013-03-18 06:19:00,37.3,34.4,30.12,South,189,3.6,8.0,89,0.00,,,0.00,WUHU216HW,2013-03-18 13:19:00,
2013-03-18 06:24:00,37.1,34.2,30.12,WSW,248,0.0,8.5,89,0.00,,,0.00,WUHU216HW,2013-03-18 13:24:00,
2013-03-18 06:29:00,37.1,34.2,30.13,ENE,68,0.0,8.5,89,0.00,,,0.00,WUHU216HW,2013-03-18 13:29:00,
2013-03-18 06:34:00,37.1,34.2,30.13,ENE,68,0.0,2.9,89,0.00,,,0.00,WUHU216HW,2013-03-18 13:34:00,
2013-03-18 06:39:00,37.1,34.2,30.13,SSE,158,6.6,6.9,89,0.00,,,0.00,WUHU216HW,2013-03-18 13:39:00,
2013-03-18 06:44:00,37.1,34.4,30.13,WSW,248,0.0,6.9,90,0.00,,,0.00,WUHU216HW,2013-03-18 13:44:00,
2013-03-18 06:49:00,37.1,34.4,30.13,WSW,248,0.0,0.0,90,0.00,,,0.00,WUHU216HW,2013-03-18 13:49:00,
2013-03-18 06:55:00,37.1,34.4,30.13,WSW,248,0.0,0.0,90,0.00,,,0.00,WUHU216HW,2013-03-18 13:55:00,
2013-03-18 07:00:00,37.1,34.4,30.13,West,270,0.0,1.7,90,0.00,,,0.00,WUHU216HW,2013-03-18 14:00:00,
2013-03-18 07:05:00,37.1,34.4,30.13,South,180,0.0,1.7,90,0.00,,,0.00,WUHU216HW,2013-03-18 14:05:00,
2013-03-18 07:10:00,37.1,34.4,30.13,SSW,203,0.0,0.0,90,0.00,,,0.00,WUHU216HW,2013-03-18 14:10:00,
2013-03-18 07:15:00,36.9,34.2,30.13,WSW,248,4.4,4.6,90,0.00,,,0.00,WUHU216HW,2013-03-18 14:15:00,
2013-03-18 07:20:00,36.9,34.2,30.13,South,180,0.0,4.6,90,0.00,,,0.00,WUHU216HW,2013-03-18 14:20:00,
2013-03-18 07:25:00,36.9,34.2,30.13,SW,225,0.0,0.0,90,0.00,,,0.00,WUHU216HW,2013-03-18 14:25:00,
2013-03-18 07:30:00,36.9,34.2,30.13,SSW,203,0.0,0.0,90,0.00,,,0.00,WUHU216HW,2013-03-18 14:30:00,
2013-03-18 07:35:00,37.1,34.4,30.13,ESE,113,0.0,3.5,90,0.00,,,0.00,WUHU216HW,2013-03-18 14:35:00,
2013-03-18 07:40:00,37.1,34.4,30.13,ESE,113,0.0,3.5,90,0.00,,,0.00,WUHU216HW,2013-03-18 14:40:00,
2013-03-18 07:45:00,37.1,34.4,30.13,SSE,158,0.0,0.0,90,0.00,,,0.00,WUHU216HW,2013-03-18 14:45:00,
2013-03-18 07:50:00,37.3,34.6,30.14,SSW,203,0.0,0.0,90,0.00,,,0.00,WUHU216HW,2013-03-18 14:50:00,
2013-03-18 07:55:00,37.3,34.6,30.14,SSW,203,0.0,0.0,90,0.00,,,0.00,WUHU216HW,2013-03-18 14:55:00,
2013-03-18 08:00:00,37.3,34.6,30.14,South,180,0.0,0.0,90,0.00,,,0.00,WUHU216HW,2013-03-18 15:00:00,
2013-03-18 08:05:00,37.5,34.8,30.14,South,180,0.0,0.0,90,0.00,,,0.00,WUHU216HW,2013-03-18 15:05:00,
2013-03-18 08:10:00,37.6,34.9,30.14,SW,225,0.0,0.0,90,0.00,,,0.00,WUHU216HW,2013-03-18 15:10:00,
2013-03-18 08:15:00,38.0,35.3,30.14,SW,225,0.0,0.0,90,0.00,,,0.00,WUHU216HW,2013-03-18 15:15:00,
2013-03-18 08:20:00,38.0,35.3,30.14,SW,225,0.0,0.0,90,0.00,,,0.00,WUHU216HW,2013-03-18 15:20:00,
2013-03-18 08:26:00,38.2,35.5,30.15,SW,225,0.0,0.0,90,0.00,,,0.00,WUHU216HW,2013-03-18 15:26:00,
2013-03-18 08:31:00,38.2,35.5,30.15,SW,225,0.0,0.0,90,0.00,,,0.00,WUHU216HW,2013-03-18 15:31:00,
2013-03-18 08:36:00,38.4,35.7,30.15,SW,225,0.0,0.0,90,0.00,,,0.00,WUHU216HW,2013-03-18 15:36:00,
2013-03-18 08:41:00,38.5,35.8,30.15,SW,225,0.0,0.0,90,0.00,,,0.00,WUHU216HW,2013-03-18 15:41:00,
2013-03-18 08:46:00,38.5,35.8,30.15,SW,225,0.0,0.0,90,0.00,,,0.00,WUHU216HW,2013-03-18 15:46:00,
2013-03-18 08:51:00,39.1,36.3,30.15,SW,225,0.0,0.0,90,0.00,,,0.00,WUHU216HW,2013-03-18 15:51:00,
2013-03-18 08:56:00,39.7,36.7,30.15,WSW,248,2.8,2.9,89,0.00,,,0.00,WUHU216HW,2013-03-18 15:56:00,
2013-03-18 09:01:00,39.9,36.6,30.16,SW,225,0.0,2.9,88,0.00,,,0.00,WUHU216HW,2013-03-18 16:01:00,
2013-03-18 09:06:00,40.2,36.6,30.16,South,180,0.0,0.0,87,0.00,,,0.00,WUHU216HW,2013-03-18 16:06:00,
2013-03-18 09:11:00,40.3,36.7,30.15,SSW,203,0.0,0.0,87,0.00,,,0.00,WUHU216HW,2013-03-18 16:11:00,
2013-03-18 09:17:00,40.3,36.4,30.15,South,180,0.0,0.0,86,0.00,,,0.00,WUHU216HW,2013-03-18 16:17:00,
2013-03-18 09:22:00,40.5,36.6,30.16,SSW,203,0.0,0.0,86,0.00,,,0.00,WUHU216HW,2013-03-18 16:22:00,
2013-03-18 09:27:00,40.8,36.7,30.16,SSW,203,0.0,0.0,85,0.00,,,0.00,WUHU216HW,2013-03-18 16:27:00,
2013-03-18 09:32:00,40.9,36.4,30.15,SSW,203,0.0,0.0,84,0.00,,,0.00,WUHU216HW,2013-03-18 16:32:00,
2013-03-18 09:37:00,42.2,37.7,30.16,SSW,196,3.4,4.9,84,0.00,,,0.00,WUHU216HW,2013-03-18 16:37:00,
2013-03-18 09:42:00,42.5,37.1,30.15,SSE,158,4.3,6.4,81,0.00,,,0.00,WUHU216HW,2013-03-18 16:42:00,
2013-03-18 09:47:00,43.7,37.6,30.16,SE,135,0.0,5.8,79,0.00,,,0.00,WUHU216HW,2013-03-18 16:47:00,
2013-03-18 09:52:00,43.0,36.6,30.16,SE,135,5.5,5.8,78,0.00,,,0.00,WUHU216HW,2013-03-18 16:52:00,
2013-03-18 09:57:00,42.7,36.7,30.16,South,180,6.9,7.3,79,0.00,,,0.00,WUHU216HW,2013-03-18 16:57:00,
2013-03-18 10:02:00,43.8,37.7,30.16,South,180,0.0,7.3,79,0.00,,,0.00,WUHU216HW,2013-03-18 17:02:00,
2013-03-18 10:07:00,45.5,37.8,30.16,South,180,6.1,6.4,74,0.00,,,0.00,WUHU216HW,2013-03-18 17:07:00,
2013-03-18 10:12:00,45.1,37.4,30.16,South,180,5.5,6.4,74,0.00,,,0.00,WUHU216HW,2013-03-18 17:12:00,
2013-03-18 10:18:00,46.0,38.6,30.17,WSW,248,0.0,6.2,75,0.00,,,0.00,WUHU216HW,2013-03-18 17:18:00,
2013-03-18 10:23:00,47.2,39.1,30.18,WSW,248,0.0,3.3,73,0.00,,,0.00,WUHU216HW,2013-03-18 17:23:00,
2013-03-18 10:28:00,46.8,38.3,30.17,SSW,203,0.0,0.0,72,0.00,,,0.00,WUHU216HW,2013-03-18 17:28:00,
2013-03-18 10:33:00,46.5,37.7,30.18,South,180,4.2,4.4,71,0.00,,,0.00,WUHU216HW,2013-03-18 17:33:00,
2013-03-18 10:38:00,47.0,38.5,30.18,SW,225,0.0,4.4,72,0.00,,,0.00,WUHU216HW,2013-03-18 17:38:00,
2013-03-18 10:43:00,48.0,38.8,30.18,WSW,248,0.0,0.0,70,0.00,,,0.00,WUHU216HW,2013-03-18 17:43:00,
2013-03-18 10:48:00,48.5,38.5,30.18,SSW,203,3.1,3.3,68,0.00,,,0.00,WUHU216HW,2013-03-18 17:48:00,
2013-03-18 10:53:00,48.0,38.0,30.19,South,180,0.0,3.3,68,0.00,,,0.00,WUHU216HW,2013-03-18 17:53:00,
2013-03-18 10:58:00,48.4,38.1,30.18,SSW,203,0.0,0.0,67,0.00,,,0.00,WUHU216HW,2013-03-18 17:58:00,
2013-03-18 11:03:00,48.6,38.6,30.18,NE,45,0.0,4.6,68,0.00,,,0.00,WUHU216HW,2013-03-18 18:03:00,
2013-03-18 11:08:00,49.2,38.4,30.18,NE,45,0.0,4.6,66,0.00,,,0.00,WUHU216HW,2013-03-18 18:08:00,
2013-03-18 11:13:00,49.9,38.3,30.18,SSW,203,3.1,5.1,64,0.00,,,0.00,WUHU216HW,2013-03-18 18:13:00,
2013-03-18 11:18:00,51.6,39.5,30.18,SSE,158,0.0,5.1,63,0.00,,,0.00,WUHU216HW,2013-03-18 18:18:00,
2013-03-18 11:24:00,52.5,39.1,30.18,SE,135,0.0,0.0,60,0.00,,,0.00,WUHU216HW,2013-03-18 18:24:00,
2013-03-18 11:29:00,53.5,40.1,30.19,SE,135,0.0,6.0,60,0.00,,,0.00,WUHU216HW,2013-03-18 18:29:00,
2013-03-18 11:34:00,53.3,39.4,30.19,SSE,158,0.0,6.0,59,0.00,,,0.00,WUHU216HW,2013-03-18 18:34:00,
2013-03-18 11:39:00,54.5,40.5,30.19,SSW,203,1.9,2.0,59,0.00,,,0.00,WUHU216HW,2013-03-18 18:39:00,
2013-03-18 11:44:00,55.7,40.4,30.19,SSW,203,3.8,7.6,56,0.00,,,0.00,WUHU216HW,2013-03-18 18:44:00,
2013-03-18 11:49:00,56.1,38.7,30.19,North,0,1.9,7.6,52,0.00,,,0.00,WUHU216HW,2013-03-18 18:49:00,
2013-03-18 11:54:00,56.8,38.3,30.19,ESE,113,0.0,4.6,50,0.00,,,0.00,WUHU216HW,2013-03-18 18:54:00,
2013-03-18 11:59:00,56.8,39.4,30.19,SE,135,0.0,0.0,52,0.00,,,0.00,WUHU216HW,2013-03-18 18:59:00,
2013-03-18 12:04:00,56.8,38.3,30.19,SE,135,5.0,6.4,50,0.00,,,0.00,WUHU216HW,2013-03-18 19:04:00,
2013-03-18 12:09:00,56.7,37.8,30.19,NNW,338,0.0,5.3,49,0.00,,,0.00,WUHU216HW,2013-03-18 19:09:00,
2013-03-18 12:14:00,56.7,37.2,30.19,North,0,7.8,8.2,48,0.00,,,0.00,WUHU216HW,2013-03-18 19:14:00,
2013-03-18 12:19:00,57.2,38.2,30.19,ENE,68,0.0,8.2,49,0.00,,,0.00,WUHU216HW,2013-03-18 19:19:00,
2013-03-18 12:24:00,56.7,37.2,30.19,ENE,68,0.0,2.4,48,0.00,,,0.00,WUHU216HW,2013-03-18 19:24:00,
2013-03-18 12:29:00,56.7,36.1,30.19,SSW,203,7.2,7.6,46,0.00,,,0.00,WUHU216HW,2013-03-18 19:29:00,
2013-03-18 12:34:00,56.7,36.1,30.19,SSE,158,1.4,7.6,46,0.00,,,0.00,WUHU216HW,2013-03-18 19:34:00,
2013-03-18 12:39:00,56.7,35.5,30.19,SSE,158,0.0,10.7,45,0.00,,,0.00,WUHU216HW,2013-03-18 19:39:00,
2013-03-18 12:44:00,56.7,34.9,30.19,SSE,158,0.0,10.7,44,0.00,,,0.00,WUHU216HW,2013-03-18 19:44:00,
2013-03-18 12:49:00,57.3,36.1,30.19,ENE,68,0.0,7.3,45,0.00,,,0.00,WUHU216HW,2013-03-18 19:49:00,
2013-03-18 12:55:00,57.3,36.1,30.19,South,180,0.0,7.3,45,0.00,,,0.00,WUHU216HW,2013-03-18 19:55:00,
2013-03-18 13:00:00,56.9,36.9,30.20,SSW,192,7.0,9.6,47,0.00,,,0.00,WUHU216HW,2013-03-18 20:00:00,
2013-03-18 13:05:00,56.3,35.1,30.19,SSW,203,0.0,9.6,45,0.00,,,0.00,WUHU216HW,2013-03-18 20:05:00,
2013-03-18 13:10:00,56.1,35.5,30.19,SE,135,0.0,6.0,46,0.00,,,0.00,WUHU216HW,2013-03-18 20:10:00,
2013-03-18 13:15:00,56.0,35.5,30.20,NNW,338,8.3,8.7,46,0.00,,,0.00,WUHU216HW,2013-03-18 20:15:00,
2013-03-18 13:20:00,55.6,35.0,30.19,ESE,113,0.0,8.7,46,0.00,,,0.00,WUHU216HW,2013-03-18 20:20:00,
2013-03-18 13:25:00,55.6,34.4,30.20,SE,135,0.0,6.7,45,0.00,,,0.00,WUHU216HW,2013-03-18 20:25:00,
2013-03-18 13:30:00,54.9,34.4,30.20,SSE,158,4.2,4.4,46,0.00,,,0.00,WUHU216HW,2013-03-18 20:30:00,
2013-03-18 13:35:00,54.2,34.3,30.19,South,180,0.0,4.4,47,0.00,,,0.00,WUHU216HW,2013-03-18 20:35:00,
2013-03-18 13:40:00,53.4,34.7,30.20,SSE,158,0.0,0.0,49,0.00,,,0.00,WUHU216HW,2013-03-18 20:40:00,
2013-03-18 13:45:00,53.1,34.4,30.20,NE,45,1.6,1.7,49,0.00,,,0.00,WUHU216HW,2013-03-18 20:45:00,
2013-03-18 13:50:00,52.9,34.7,30.19,North,0,0.0,4.6,50,0.00,,,0.00,WUHU216HW,2013-03-18 20:50:00,
2013-03-18 13:55:00,53.8,35.0,30.19,SE,135,0.0,4.6,49,0.00,,,0.00,WUHU216HW,2013-03-18 20:55:00,
2013-03-18 14:00:00,54.0,35.7,30.20,WSW,248,6.9,8.7,50,0.00,,,0.00,WUHU216HW,2013-03-18 21:00:00,
2013-03-18 14:05:00,53.8,36.1,30.19,SSE,158,7.2,8.7,51,0.00,,,0.00,WUHU216HW,2013-03-18 21:05:00,
2013-03-18 14:10:00,54.7,37.4,30.20,South,180,4.8,7.6,52,0.00,,,0.00,WUHU216HW,2013-03-18 21:10:00,
2013-03-18 14:15:00,54.3,35.5,30.19,South,178,5.7,10.7,49,0.00,,,0.00,WUHU216HW,2013-03-18 21:15:00,
2013-03-18 14:20:00,54.2,35.9,30.20,SSE,168,7.6,10.7,50,0.00,,,0.00,WUHU216HW,2013-03-18 21:20:00,
2013-03-18 14:25:00,55.4,37.0,30.20,SSW,203,0.0,10.5,50,0.00,,,0.00,WUHU216HW,2013-03-18 21:25:00,
2013-03-18 14:30:00,55.8,35.8,30.20,South,180,6.6,10.5,47,0.00,,,0.00,WUHU216HW,2013-03-18 21:30:00,
2013-03-18 14:35:00,56.0,36.5,30.19,South,180,0.0,10.7,48,0.00,,,0.00,WUHU216HW,2013-03-18 21:35:00,
2013-03-18 14:40:00,56.7,36.6,30.20,South,180,5.9,10.7,47,0.00,,,0.00,WUHU216HW,2013-03-18 21:40:00,
2013-03-18 14:45:00,56.7,36.6,30.20,South,180,0.0,8.5,47,0.00,,,0.00,WUHU216HW,2013-03-18 21:45:00,
2013-03-18 14:50:00,56.9,36.2,30.20,SW,225,6.1,8.5,46,0.00,,,0.00,WUHU216HW,2013-03-18 21:50:00,
2013-03-18 14:55:00,56.7,35.5,30.20,South,180,0.0,7.8,45,0.00,,,0.00,WUHU216HW,2013-03-18 21:55:00,
2013-03-18 15:00:00,57.2,36.5,30.20,West,270,0.0,0.0,46,0.00,,,0.00,WUHU216HW,2013-03-18 22:00:00,
2013-03-18 15:06:00,56.7,36.1,30.20,ENE,68,0.0,0.0,46,0.00,,,0.00,WUHU216HW,2013-03-18 22:06:00,
2013-03-18 15:11:00,56.9,36.3,30.21,NE,45,6.4,6.7,46,0.00,,,0.00,WUHU216HW,2013-03-18 22:11:00,
2013-03-18 15:16:00,56.7,36.1,30.20,ENE,68,0.0,6.7,46,0.00,,,0.00,WUHU216HW,2013-03-18 22:16:00,
2013-03-18 15:21:00,55.7,35.7,30.20,ENE,68,0.0,2.0,47,0.00,,,0.00,WUHU216HW,2013-03-18 22:21:00,
2013-03-18 15:26:00,55.3,35.9,30.20,ESE,113,0.0,2.0,48,0.00,,,0.00,WUHU216HW,2013-03-18 22:26:00,
2013-03-18 15:31:00,55.7,36.3,30.20,ENE,68,0.6,1.3,48,0.00,,,0.00,WUHU216HW,2013-03-18 22:31:00,
2013-03-18 15:36:00,55.3,35.4,30.20,East,90,0.0,1.3,47,0.00,,,0.00,WUHU216HW,2013-03-18 22:36:00,
2013-03-18 15:41:00,55.3,35.9,30.21,NE,45,0.0,0.0,48,0.00,,,0.00,WUHU216HW,2013-03-18 22:41:00,
2013-03-18 15:46:00,54.9,36.0,30.20,West,270,0.0,0.0,49,0.00,,,0.00,WUHU216HW,2013-03-18 22:46:00,
2013-03-18 15:51:00,54.5,35.7,30.20,SSW,203,0.0,0.0,49,0.00,,,0.00,WUHU216HW,2013-03-18 22:51:00,
2013-03-18 15:56:00,53.8,35.1,30.20,North,0,0.0,2.9,49,0.00,,,0.00,WUHU216HW,2013-03-18 22:56:00,
2013-03-18 16:01:00,53.6,34.9,30.21,NNE,23,4.8,5.1,49,0.00,,,0.00,WUHU216HW,2013-03-18 23:01:00,
2013-03-18 16:06:00,53.6,35.4,30.20,North,0,0.0,5.1,50,0.00,,,0.00,WUHU216HW,2013-03-18 23:06:00,
2013-03-18 16:12:00,52.8,34.6,30.21,North,0,0.0,0.0,50,0.00,,,0.00,WUHU216HW,2013-03-18 23:12:00,
2013-03-18 16:17:00,52.1,34.0,30.21,North,0,0.0,0.0,50,0.00,,,0.00,WUHU216HW,2013-03-18 23:17:00,